Location: ??????
(30.5519°N, 47.7720°E)
Time: 17:32:31
(UTC+00:00)

Okean-O - Pass Details

Date: 24 January 2021
Orbit: 638 x 641 km, 98.2° (Epoch: 01 March)

Event Time Altitude Azimuth Distance (km) Brightness Sun altitude
Rises 14:45:18 0° 133° (SE) 2,932 5.7 -6.3°
Reaches altitude 10° 14:47:59 10° 116° (ESE) 2,027 4.8 -6.9°
Maximum altitude 14:51:09 20° 70° (ENE) 1,492 3.9 -7.5°
Drops below altitude 10° 14:54:20 10° 24° (NNE) 2,036 4.8 -8.2°
Sets 14:57:02 0° 7° (N) 2,948 5.8 -8.7°
